When you browse on this site, cookies collect data to enhance your experience and personalize the content and advertising you see.
Visit our Privacy Policy to learn more. By continuing to use the site, you agree to this use of cookies and data.
  • In Switzerland
  • List of Countries
  • For 7 days
  • Water Temperature
  • Satellite Maps
  • Weather Map
  • Weather Widgets
  • user-avatar
    Login

    Hourly Weather Biskira

    Today, 21 January, Monday

    Time Temperature Precipitation Wind Pressure Humidity
    00:00 +10°C° 0 mm 2 mps 748 mmHg 69%
    01:00 +10°C° 0 mm 2 mps 748 mmHg 71%
    02:00 +10°C° 0 mm 1 mps 748 mmHg 73%
    03:00 +10°C° 0 mm 1 mps 747 mmHg 75%
    04:00 +10°C° 0 mm 1 mps 748 mmHg 74%
    05:00 +10°C° 0 mm 2 mps 748 mmHg 73%
    06:00 +10°C° 0 mm 2 mps 748 mmHg 74%
    07:00 +11°C° 0 mm 4 mps 748 mmHg 72%
    08:00 +10°C° 0 mm 5 mps 748 mmHg 70%
    09:00 +11°C° 0 mm 6 mps 748 mmHg 68%
    10:00 +14°C° 0 mm 6 mps 749 mmHg 60%
    11:00 +15°C° 0 mm 7 mps 749 mmHg 51%
    12:00 +16°C° 0 mm 8 mps 749 mmHg 42%
    13:00 +16°C° 0 mm 8 mps 749 mmHg 40%
    14:00 +16°C° 0 mm 8 mps 749 mmHg 38%
    15:00 +17°C° 0 mm 8 mps 749 mmHg 37%
    16:00 +16°C° 0 mm 7 mps 749 mmHg 40%
    17:00 +15°C° 0 mm 6 mps 750 mmHg 44%
    18:00 +14°C° 0 mm 6 mps 750 mmHg 47%
    19:00 +13°C° 0 mm 5 mps 750 mmHg 50%
    20:00 +12°C° 0 mm 5 mps 751 mmHg 52%
    21:00 +12°C° 0 mm 5 mps 751 mmHg 55%
    22:00 +10°C° 0 mm 5 mps 751 mmHg 57%
    23:00 +10°C° 0 mm 5 mps 752 mmHg 59%

    Tomorrow, 22 January, Tuesday

    Time Temperature Precipitation Wind Pressure Humidity
    00:00 +10°C° 0 mm 5 mps 752 mmHg 61%
    01:00 +10°C° 0 mm 4 mps 752 mmHg 61%
    02:00 +10°C° 0 mm 4 mps 752 mmHg 62%
    03:00 +10°C° 0 mm 4 mps 751 mmHg 62%
    04:00 +10°C° 0 mm 4 mps 751 mmHg 63%
    05:00 +8°C° 0 mm 4 mps 751 mmHg 63%
    06:00 +8°C° 0 mm 4 mps 751 mmHg 63%
    07:00 +10°C° 0 mm 3 mps 751 mmHg 59%
    08:00 +11°C° 0 mm 3 mps 752 mmHg 55%
    09:00 +11°C° 0 mm 3 mps 752 mmHg 51%
    10:00 +12°C° 0 mm 3 mps 751 mmHg 48%
    11:00 +13°C° 0 mm 4 mps 751 mmHg 44%
    12:00 +14°C° 0 mm 4 mps 750 mmHg 41%
    13:00 +14°C° 0 mm 4 mps 750 mmHg 40%
    14:00 +14°C° 0 mm 5 mps 749 mmHg 39%
    15:00 +14°C° 0 mm 5 mps 748 mmHg 37%
    16:00 +13°C° 0 mm 5 mps 748 mmHg 39%
    17:00 +12°C° 0 mm 5 mps 748 mmHg 41%
    18:00 +12°C° 0 mm 4 mps 749 mmHg 43%
    19:00 +10°C° 0 mm 5 mps 749 mmHg 45%
    20:00 +10°C° 0 mm 6 mps 749 mmHg 46%
    21:00 +9°C° 0 mm 6 mps 749 mmHg 47%
    22:00 +9°C° 0 mm 6 mps 749 mmHg 50%
    23:00 +8°C° 0 mm 5 mps 748 mmHg 52%

    Day after tomorrow, 23 January, Wednesday

    Time Temperature Precipitation Wind Pressure Humidity
    00:00 +8°C° 0 mm 5 mps 748 mmHg 55%
    01:00 +7°C° 0 mm 4 mps 748 mmHg 56%
    02:00 +7°C° 0 mm 4 mps 747 mmHg 56%
    03:00 +8°C° 0 mm 3 mps 747 mmHg 57%
    04:00 +8°C° 0 mm 3 mps 746 mmHg 59%
    05:00 +7°C° 0 mm 3 mps 746 mmHg 61%
    06:00 +7°C° 0 mm 3 mps 745 mmHg 63%
    07:00 +8°C° 0 mm 3 mps 746 mmHg 61%
    08:00 +8°C° 0 mm 4 mps 746 mmHg 58%
    09:00 +9°C° 0 mm 5 mps 746 mmHg 56%
    10:00 +10°C° 0 mm 7 mps 745 mmHg 51%
    11:00 +12°C° 0 mm 8 mps 745 mmHg 46%
    12:00 +13°C° 0 mm 9 mps 744 mmHg 41%
    13:00 +13°C° 0 mm 10 mps 744 mmHg 39%
    14:00 +13°C° 0 mm 10 mps 743 mmHg 38%
    15:00 +13°C° 0 mm 10 mps 743 mmHg 36%
    16:00 +13°C° 0 mm 9 mps 743 mmHg 40%
    17:00 +12°C° 0 mm 8 mps 742 mmHg 43%
    18:00 +12°C° 0 mm 7 mps 742 mmHg 47%
    19:00 +11°C° 0 mm 7 mps 742 mmHg 50%
    20:00 +11°C° 0 mm 7 mps 742 mmHg 53%
    21:00 +11°C° 0 mm 8 mps 742 mmHg 56%
    22:00 +10°C° 0 mm 8 mps 741 mmHg 60%
    23:00 +10°C° 0 mm 9 mps 741 mmHg 64%

    24 January, Thursday

    Time Temperature Precipitation Wind Pressure Humidity
    00:00 +9°C° 0 mm 10 mps 740 mmHg 67%
    01:00 +9°C° 0 mm 10 mps 740 mmHg 69%
    02:00 +10°C° 0 mm 9 mps 739 mmHg 70%
    03:00 +8°C° 0 mm 9 mps 738 mmHg 71%
    04:00 +8°C° 0 mm 11 mps 738 mmHg 64%
    05:00 +8°C° 0 mm 12 mps 738 mmHg 56%
    06:00 +8°C° 0 mm 14 mps 738 mmHg 48%
    07:00 +8°C° 0 mm 14 mps 739 mmHg 44%
    08:00 +8°C° 0 mm 14 mps 740 mmHg 40%
    09:00 +6°C° 0 mm 14 mps 741 mmHg 36%
    10:00 +7°C° 0 mm 16 mps 741 mmHg 33%
    11:00 +7°C° 0 mm 17 mps 742 mmHg 29%
    12:00 +9°C° 0 mm 18 mps 742 mmHg 26%
    13:00 +8°C° 0 mm 19 mps 742 mmHg 28%
    14:00 +8°C° 0 mm 19 mps 741 mmHg 31%
    15:00 +8°C° 0 mm 19 mps 741 mmHg 33%
    16:00 +7°C° 0 mm 19 mps 742 mmHg 36%
    17:00 +6°C° 0 mm 19 mps 742 mmHg 39%
    18:00 +6°C° 0 mm 19 mps 743 mmHg 42%
    19:00 +6°C° 0 mm 18 mps 743 mmHg 45%
    20:00 +6°C° 0 mm 18 mps 744 mmHg 48%
    21:00 +6°C° 0 mm 18 mps 744 mmHg 51%
    22:00 +6°C° 0 mm 17 mps 745 mmHg 51%
    23:00 +6°C° 0 mm 16 mps 745 mmHg 52%

    25 January, Friday

    Time Temperature Precipitation Wind Pressure Humidity
    00:00 +6°C° 0 mm 16 mps 746 mmHg 53%
    01:00 +6°C° 0 mm 15 mps 746 mmHg 54%
    02:00 +6°C° 0 mm 14 mps 747 mmHg 55%
    03:00 +7°C° 0 mm 13 mps 747 mmHg 56%
    04:00 +7°C° 0 mm 12 mps 748 mmHg 56%
    05:00 +5°C° 0 mm 12 mps 748 mmHg 57%
    06:00 +6°C° 0 mm 11 mps 749 mmHg 57%
    07:00 +7°C° 0 mm 12 mps 750 mmHg 53%
    08:00 +8°C° 0 mm 12 mps 750 mmHg 48%
    09:00 +8°C° 0 mm 13 mps 751 mmHg 43%
    10:00 +9°C° 0 mm 13 mps 751 mmHg 40%
    11:00 +10°C° 0 mm 12 mps 751 mmHg 37%
    12:00 +12°C° 0 mm 11 mps 752 mmHg 34%
    13:00 +12°C° 0 mm 11 mps 752 mmHg 34%
    14:00 +12°C° 0 mm 10 mps 752 mmHg 34%
    15:00 +11°C° 0 mm 9 mps 752 mmHg 34%
    16:00 +11°C° 0 mm 7 mps 752 mmHg 37%
    17:00 +10°C° 0 mm 6 mps 752 mmHg 40%
    18:00 +9°C° 0 mm 5 mps 753 mmHg 43%
    19:00 +9°C° 0 mm 5 mps 753 mmHg 47%
    20:00 +8°C° 0 mm 5 mps 754 mmHg 50%
    21:00 +8°C° 0 mm 6 mps 754 mmHg 54%
    22:00 +7°C° 0 mm 6 mps 754 mmHg 57%
    23:00 +7°C° 0 mm 6 mps 755 mmHg 60%

    26 January, Saturday

    Time Temperature Precipitation Wind Pressure Humidity
    00:00 +5°C° 0 mm 6 mps 755 mmHg 63%
    01:00 +5°C° 0 mm 6 mps 755 mmHg 64%
    02:00 +6°C° 0 mm 5 mps 755 mmHg 65%
    03:00 +5°C° 0 mm 5 mps 755 mmHg 66%
    04:00 +5°C° 0 mm 5 mps 755 mmHg 66%
    05:00 +5°C° 0 mm 5 mps 755 mmHg 66%
    06:00 +5°C° 0 mm 5 mps 755 mmHg 66%
    07:00 +6°C° 0 mm 5 mps 755 mmHg 61%
    08:00 +7°C° 0 mm 6 mps 756 mmHg 57%
    09:00 +8°C° 0 mm 6 mps 756 mmHg 52%
    10:00 +10°C° 0 mm 7 mps 756 mmHg 50%
    11:00 +11°C° 0 mm 7 mps 756 mmHg 47%
    12:00 +12°C° 0 mm 8 mps 756 mmHg 44%
    13:00 +14°C° 0 mm 7 mps 755 mmHg 43%
    14:00 +14°C° 0 mm 7 mps 755 mmHg 41%
    15:00 +15°C° 0 mm 6 mps 755 mmHg 40%
    16:00 +14°C° 0 mm 5 mps 755 mmHg 43%
    17:00 +13°C° 0 mm 4 mps 755 mmHg 46%
    18:00 +12°C° 0 mm 3 mps 755 mmHg 49%
    19:00 +12°C° 0 mm 3 mps 755 mmHg 51%
    20:00 +11°C° 0 mm 3 mps 755 mmHg 52%
    21:00 +12°C° 0 mm 2 mps 755 mmHg 53%
    22:00 +10°C° 0 mm 2 mps 755 mmHg 55%
    23:00 +11°C° 0 mm 1 mps 755 mmHg 57%
    Show more